Wetterdaten: Donnerstag, 04.02.2016
Datum Zeit Auen-Temp. Temp gefhlt Luftfeuchte Luftdruck Regen Wind Richtung Richtung Taupunkt Windben
04.02.2016 00:00 -1,4 C -2,0 C 79 % 1023,1 hPa 0,0 mm 5,7 km/h (1 Bft) NW 315 -4,6 C 5,4 km/h (1 Bft)
04.02.2016 00:05 -1,4 C -2,0 C 79 % 1023,4 hPa 0,0 mm 5,7 km/h (1 Bft) NW 315 -4,6 C 8,8 km/h (2 Bft)
04.02.2016 00:10 -1,4 C -2,3 C 79 % 1023,4 hPa 0,0 mm 7,8 km/h (2 Bft) NW 315 -4,6 C 6,2 km/h (2 Bft)
04.02.2016 00:15 -1,7 C -2,6 C 80 % 1023,4 hPa 0,0 mm 8,3 km/h (2 Bft) NW 315 -4,7 C 10,4 km/h (2 Bft)
04.02.2016 00:20 -1,8 C -2,4 C 81 % 1023,4 hPa 0,0 mm 6,2 km/h (2 Bft) NW 315 -4,6 C 10,4 km/h (2 Bft)
04.02.2016 00:25 -1,8 C -2,4 C 82 % 1023,2 hPa 0,0 mm 6,0 km/h (2 Bft) NW 315 -4,5 C 4,1 km/h (1 Bft)
04.02.2016 00:30 -1,9 C -2,2 C 79 % 1023,2 hPa 0,0 mm 4,1 km/h (1 Bft) NW 315 -5,0 C 2,6 km/h (1 Bft)
04.02.2016 00:35 -1,9 C -2,1 C 79 % 1023,2 hPa 0,0 mm 3,4 km/h (1 Bft) NW 315 -5,0 C 5,2 km/h (1 Bft)
04.02.2016 00:40 -1,9 C -2,2 C 79 % 1023,2 hPa 0,0 mm 4,1 km/h (1 Bft) NW 315 -5,0 C 4,9 km/h (1 Bft)
04.02.2016 00:45 -1,9 C -2,2 C 79 % 1023,0 hPa 0,0 mm 4,7 km/h (1 Bft) NW 315 -5,0 C 4,7 km/h (1 Bft)
04.02.2016 00:50 -1,9 C -2,4 C 84 % 1023,0 hPa 0,0 mm 5,2 km/h (1 Bft) NW 315 -4,2 C 3,4 km/h (1 Bft)
04.02.2016 00:55 -1,9 C -2,3 C 84 % 1023,0 hPa 0,0 mm 4,7 km/h (1 Bft) NW 315 -4,2 C 6,0 km/h (2 Bft)
04.02.2016 01:00 -2,0 C -2,2 C 80 % 1023,0 hPa 0,0 mm 3,6 km/h (1 Bft) NW 315 -5,0 C 7,3 km/h (2 Bft)
04.02.2016 01:05 -2,0 C -2,3 C 80 % 1023,3 hPa 0,0 mm 4,1 km/h (1 Bft) NW 315 -5,0 C 0,0 km/h (0 Bft)
04.02.2016 01:10 -2,0 C -2,2 C 81 % 1023,3 hPa 0,0 mm 3,6 km/h (1 Bft) NW 315 -4,8 C 4,4 km/h (1 Bft)
04.02.2016 01:15 -2,0 C -2,1 C 81 % 1023,3 hPa 0,0 mm 3,4 km/h (1 Bft) NW 315 -4,8 C 5,4 km/h (1 Bft)
04.02.2016 01:20 -2,0 C -2,3 C 85 % 1023,3 hPa 0,0 mm 4,1 km/h (1 Bft) NW 315 -4,2 C 4,9 km/h (1 Bft)
04.02.2016 01:25 -2,0 C -2,3 C 85 % 1023,5 hPa 0,0 mm 3,9 km/h (1 Bft) NW 315 -4,2 C 3,6 km/h (1 Bft)
04.02.2016 01:30 -2,0 C -2,3 C 85 % 1023,5 hPa 0,0 mm 4,1 km/h (1 Bft) NW 315 -4,2 C 9,8 km/h (2 Bft)
04.02.2016 01:35 -2,0 C -2,2 C 85 % 1023,5 hPa 0,0 mm 3,6 km/h (1 Bft) NW 315 -4,2 C 6,2 km/h (2 Bft)
04.02.2016 01:40 -2,0 C -2,4 C 86 % 1023,5 hPa 0,0 mm 4,7 km/h (1 Bft) NW 315 -4,0 C 13,5 km/h (3 Bft)
04.02.2016 01:45 -2,0 C -2,5 C 86 % 1023,4 hPa 0,0 mm 5,4 km/h (1 Bft) NW 315 -4,0 C 4,9 km/h (1 Bft)
04.02.2016 01:50 -2,0 C -2,7 C 82 % 1023,4 hPa 0,0 mm 7,5 km/h (2 Bft) NW 315 -4,7 C 12,2 km/h (2 Bft)
04.02.2016 01:55 -1,8 C -2,7 C 87 % 1023,4 hPa 0,0 mm 8,3 km/h (2 Bft) NW 315 -3,7 C 7,5 km/h (2 Bft)
04.02.2016 02:00 -1,9 C -2,4 C 82 % 1023,4 hPa 0,0 mm 7,0 km/h (2 Bft) NW 315 -4,6 C 6,0 km/h (2 Bft)
04.02.2016 02:05 -1,7 C -2,2 C 82 % 1023,7 hPa 0,0 mm 6,2 km/h (2 Bft) NW 315 -4,4 C 9,8 km/h (2 Bft)
04.02.2016 02:10 -1,6 C -2,1 C 83 % 1023,7 hPa 0,0 mm 6,0 km/h (2 Bft) NW 315 -4,1 C 5,7 km/h (1 Bft)
04.02.2016 02:15 -1,6 C -2,1 C 83 % 1023,7 hPa 0,0 mm 5,7 km/h (1 Bft) NW 315 -4,1 C 5,2 km/h (1 Bft)
04.02.2016 02:20 -1,5 C -1,9 C 83 % 1023,7 hPa 0,0 mm 4,9 km/h (1 Bft) NW 315 -4,0 C 5,7 km/h (1 Bft)
04.02.2016 02:25 -1,5 C -1,9 C 83 % 1023,7 hPa 0,0 mm 5,4 km/h (1 Bft) NW 315 -4,0 C 8,0 km/h (2 Bft)
04.02.2016 02:30 -1,5 C -2,2 C 83 % 1023,7 hPa 0,0 mm 7,3 km/h (2 Bft) NW 315 -4,0 C 10,6 km/h (2 Bft)
04.02.2016 02:35 -1,4 C -2,2 C 83 % 1023,7 hPa 0,0 mm 7,8 km/h (2 Bft) NW 315 -3,9 C 16,3 km/h (3 Bft)
04.02.2016 02:40 -1,2 C -2,1 C 87 % 1023,7 hPa 0,0 mm 8,3 km/h (2 Bft) NW 315 -3,1 C 7,3 km/h (2 Bft)
04.02.2016 02:45 -1,2 C -2,2 C 87 % 1024,0 hPa 0,0 mm 9,6 km/h (2 Bft) NW 315 -3,1 C 23,3 km/h (4 Bft)
04.02.2016 02:50 -1,2 C -2,2 C 87 % 1024,0 hPa 0,0 mm 9,6 km/h (2 Bft) NW 315 -3,1 C 11,9 km/h (2 Bft)
04.02.2016 02:55 -1,2 C -2,3 C 87 % 1024,0 hPa 0,0 mm 10,4 km/h (2 Bft) NW 315 -3,1 C 22,0 km/h (4 Bft)
04.02.2016 03:00 -1,2 C -2,3 C 86 % 1024,0 hPa 0,0 mm 10,9 km/h (2 Bft) NW 315 -3,2 C 8,5 km/h (2 Bft)
04.02.2016 03:05 -1,3 C -2,4 C 86 % 1024,3 hPa 0,0 mm 10,9 km/h (2 Bft) NW 315 -3,3 C 24,1 km/h (4 Bft)
04.02.2016 03:10 -1,3 C -2,3 C 86 % 1024,3 hPa 0,0 mm 8,8 km/h (2 Bft) NW 315 -3,3 C 12,2 km/h (2 Bft)
04.02.2016 03:15 -1,4 C -2,4 C 86 % 1024,3 hPa 0,0 mm 9,6 km/h (2 Bft) NW 315 -3,4 C 12,2 km/h (2 Bft)
04.02.2016 03:20 -1,4 C -2,5 C 86 % 1024,3 hPa 0,0 mm 9,8 km/h (2 Bft) NW 315 -3,4 C 14,0 km/h (3 Bft)
04.02.2016 03:25 -1,4 C -2,4 C 86 % 1024,5 hPa 0,0 mm 9,3 km/h (2 Bft) NW 315 -3,4 C 26,7 km/h (4 Bft)
04.02.2016 03:30 -1,4 C -2,4 C 82 % 1024,5 hPa 0,0 mm 9,3 km/h (2 Bft) NW 315 -4,1 C 4,4 km/h (1 Bft)
04.02.2016 03:35 -1,4 C -2,2 C 82 % 1024,5 hPa 0,0 mm 8,3 km/h (2 Bft) NW 315 -4,1 C 5,7 km/h (1 Bft)
04.02.2016 03:40 -1,4 C -2,1 C 82 % 1024,5 hPa 0,0 mm 7,3 km/h (2 Bft) NW 315 -4,1 C 8,3 km/h (2 Bft)
04.02.2016 03:45 -1,3 C -2,2 C 86 % 1024,6 hPa 0,0 mm 8,3 km/h (2 Bft) NW 315 -3,3 C 10,4 km/h (2 Bft)
04.02.2016 03:50 -1,4 C -2,5 C 86 % 1024,6 hPa 0,0 mm 10,6 km/h (2 Bft) NW 315 -3,4 C 11,4 km/h (2 Bft)
04.02.2016 03:55 -1,4 C -2,6 C 86 % 1024,6 hPa 0,0 mm 11,9 km/h (2 Bft) NW 315 -3,4 C 38,1 km/h (5 Bft)
04.02.2016 04:00 -1,4 C -2,5 C 86 % 1024,6 hPa 0,0 mm 11,1 km/h (2 Bft) NW 315 -3,4 C 6,0 km/h (2 Bft)
04.02.2016 04:05 -1,4 C -2,5 C 86 % 1025,1 hPa 0,0 mm 10,1 km/h (2 Bft) NW 315 -3,4 C 10,1 km/h (2 Bft)
04.02.2016 04:10 -1,4 C -2,6 C 86 % 1025,1 hPa 0,0 mm 11,4 km/h (2 Bft) NW 315 -3,4 C 21,8 km/h (4 Bft)
04.02.2016 04:15 -1,4 C -2,3 C 86 % 1025,1 hPa 0,0 mm 13,2 km/h (3 Bft) NW 315 -3,4 C 27,7 km/h (4 Bft)
04.02.2016 04:20 -1,5 C -2,7 C 83 % 1025,1 hPa 0,0 mm 12,7 km/h (3 Bft) NW 315 -4,0 C 7,3 km/h (2 Bft)
04.02.2016 04:25 -1,5 C -2,7 C 83 % 1025,3 hPa 0,0 mm 12,2 km/h (2 Bft) NW 315 -4,0 C 22,3 km/h (4 Bft)
04.02.2016 04:30 -1,5 C -2,6 C 85 % 1025,3 hPa 0,0 mm 9,8 km/h (2 Bft) NW 315 -3,7 C 8,8 km/h (2 Bft)
04.02.2016 04:35 -1,5 C -2,4 C 85 % 1025,3 hPa 0,0 mm 8,5 km/h (2 Bft) NW 315 -3,7 C 7,0 km/h (2 Bft)
04.02.2016 04:40 -1,6 C -2,3 C 85 % 1025,3 hPa 0,0 mm 6,7 km/h (2 Bft) NW 315 -3,8 C 9,8 km/h (2 Bft)
04.02.2016 04:44 -1,6 C -2,3 C 85 % 1025,1 hPa 0,0 mm 6,7 km/h (2 Bft) NW 315 -3,8 C 11,1 km/h (2 Bft)
04.02.2016 04:50 -1,6 C -2,3 C 85 % 1025,1 hPa 0,0 mm 6,5 km/h (2 Bft) NW 315 -3,8 C 7,0 km/h (2 Bft)
04.02.2016 04:55 -1,6 C -2,3 C 85 % 1025,1 hPa 0,0 mm 6,7 km/h (2 Bft) NW 315 -3,8 C 10,1 km/h (2 Bft)
04.02.2016 05:00 -1,5 C -2,4 C 85 % 1025,1 hPa 0,0 mm 8,3 km/h (2 Bft) NW 315 -3,7 C 9,6 km/h (2 Bft)
04.02.2016 05:05 -1,5 C -2,4 C 85 % 1025,1 hPa 0,0 mm 8,5 km/h (2 Bft) NW 315 -3,7 C 10,4 km/h (2 Bft)
04.02.2016 05:10 -1,5 C -2,4 C 85 % 1025,1 hPa 0,0 mm 8,0 km/h (2 Bft) NW 315 -3,7 C 10,6 km/h (2 Bft)
04.02.2016 05:15 -1,4 C -2,4 C 85 % 1025,1 hPa 0,0 mm 8,3 km/h (2 Bft) NW 315 -3,6 C 13,5 km/h (3 Bft)
04.02.2016 05:20 -1,4 C -2,4 C 85 % 1025,1 hPa 0,0 mm 8,8 km/h (2 Bft) NW 315 -3,6 C 12,4 km/h (3 Bft)
04.02.2016 05:25 -1,4 C -2,4 C 85 % 1025,1 hPa 0,0 mm 8,3 km/h (2 Bft) NW 315 -3,6 C 10,1 km/h (2 Bft)
04.02.2016 05:30 -1,4 C -2,4 C 85 % 1025,1 hPa 0,0 mm 8,5 km/h (2 Bft) NW 315 -3,6 C 11,9 km/h (2 Bft)
04.02.2016 05:35 -1,4 C -2,4 C 85 % 1025,1 hPa 0,0 mm 8,3 km/h (2 Bft) NW 315 -3,6 C 11,1 km/h (2 Bft)
04.02.2016 05:40 -1,5 C -2,2 C 84 % 1025,1 hPa 0,0 mm 6,5 km/h (2 Bft) NW 315 -3,8 C 8,5 km/h (2 Bft)
04.02.2016 05:45 -1,5 C -2,1 C 84 % 1024,9 hPa 0,0 mm 6,0 km/h (2 Bft) NW 315 -3,8 C 8,0 km/h (2 Bft)
04.02.2016 05:50 -1,5 C -2,4 C 84 % 1024,9 hPa 0,0 mm 7,8 km/h (2 Bft) NW 315 -3,8 C 5,4 km/h (1 Bft)
04.02.2016 05:55 -1,5 C -2,4 C 84 % 1024,9 hPa 0,0 mm 8,3 km/h (2 Bft) NW 315 -3,8 C 9,3 km/h (2 Bft)
04.02.2016 06:00 -1,5 C -2,4 C 84 % 1024,9 hPa 0,0 mm 8,0 km/h (2 Bft) NW 315 -3,8 C 7,8 km/h (2 Bft)
04.02.2016 06:05 -1,5 C -2,4 C 84 % 1025,1 hPa 0,0 mm 8,0 km/h (2 Bft) NW 315 -3,8 C 13,2 km/h (3 Bft)
04.02.2016 06:10 -1,5 C -2,2 C 83 % 1025,1 hPa 0,0 mm 6,2 km/h (2 Bft) NW 315 -4,0 C 8,8 km/h (2 Bft)
04.02.2016 06:15 -1,5 C -2,1 C 83 % 1025,1 hPa 0,0 mm 6,0 km/h (2 Bft) NW 315 -4,0 C 4,9 km/h (1 Bft)
04.02.2016 06:20 -1,4 C -2,2 C 83 % 1025,1 hPa 0,0 mm 6,7 km/h (2 Bft) NW 315 -3,9 C 15,3 km/h (3 Bft)
04.02.2016 06:25 -1,4 C -2,2 C 83 % 1024,9 hPa 0,0 mm 6,7 km/h (2 Bft) NW 315 -3,9 C 3,9 km/h (1 Bft)
04.02.2016 06:30 -1,4 C -2,2 C 83 % 1024,9 hPa 0,0 mm 6,5 km/h (2 Bft) NW 315 -3,9 C 6,7 km/h (2 Bft)
04.02.2016 06:35 -1,4 C -2,0 C 82 % 1024,9 hPa 0,0 mm 5,7 km/h (1 Bft) NW 315 -4,1 C 5,4 km/h (1 Bft)
04.02.2016 06:40 -1,4 C -2,1 C 82 % 1024,9 hPa 0,0 mm 6,2 km/h (2 Bft) NW 315 -4,1 C 11,4 km/h (2 Bft)
04.02.2016 06:45 -1,3 C -2,1 C 82 % 1024,8 hPa 0,0 mm 6,5 km/h (2 Bft) NW 315 -4,0 C 7,3 km/h (2 Bft)
04.02.2016 06:50 -1,4 C -2,0 C 82 % 1024,8 hPa 0,0 mm 5,7 km/h (1 Bft) NW 315 -4,1 C 0,0 km/h (0 Bft)
04.02.2016 06:55 -1,6 C -1,9 C 82 % 1024,8 hPa 0,0 mm 4,1 km/h (1 Bft) NW 315 -4,3 C 4,7 km/h (1 Bft)
04.02.2016 07:00 -1,6 C -2,1 C 82 % 1024,8 hPa 0,0 mm 4,9 km/h (1 Bft) NW 315 -4,3 C 9,3 km/h (2 Bft)
04.02.2016 07:05 -1,7 C -2,3 C 82 % 1024,9 hPa 0,0 mm 5,7 km/h (1 Bft) NW 315 -4,4 C 5,4 km/h (1 Bft)
04.02.2016 07:10 -1,6 C -2,4 C 82 % 1024,9 hPa 0,0 mm 6,5 km/h (2 Bft) NW 315 -4,3 C 6,0 km/h (2 Bft)
04.02.2016 07:15 -1,6 C -2,5 C 82 % 1024,9 hPa 0,0 mm 7,3 km/h (2 Bft) NW 315 -4,3 C 11,4 km/h (2 Bft)
04.02.2016 07:20 -1,6 C -2,5 C 82 % 1024,9 hPa 0,0 mm 7,3 km/h (2 Bft) NW 315 -4,3 C 7,5 km/h (2 Bft)
04.02.2016 07:25 -1,6 C -2,5 C 82 % 1025,1 hPa 0,0 mm 7,3 km/h (2 Bft) NW 315 -4,3 C 13,7 km/h (3 Bft)
04.02.2016 07:30 -1,4 C -2,5 C 82 % 1025,1 hPa 0,0 mm 8,8 km/h (2 Bft) NW 315 -4,1 C 9,6 km/h (2 Bft)
04.02.2016 07:35 -1,4 C -2,5 C 82 % 1025,1 hPa 0,0 mm 9,3 km/h (2 Bft) NW 315 -4,1 C 9,8 km/h (2 Bft)
04.02.2016 07:40 -1,3 C -2,3 C 82 % 1025,1 hPa 0,0 mm 8,5 km/h (2 Bft) NW 315 -4,0 C 12,9 km/h (3 Bft)
04.02.2016 07:45 -1,3 C -2,3 C 81 % 1025,1 hPa 0,0 mm 8,8 km/h (2 Bft) NW 315 -4,1 C 12,9 km/h (3 Bft)
04.02.2016 07:50 -1,2 C -2,2 C 81 % 1025,1 hPa 0,0 mm 8,0 km/h (2 Bft) NW 315 -4,0 C 8,5 km/h (2 Bft)
04.02.2016 07:55 -1,1 C -2,1 C 81 % 1025,1 hPa 0,0 mm 8,0 km/h (2 Bft) NW 315 -3,9 C 11,4 km/h (2 Bft)
04.02.2016 08:00 -1,1 C -2,1 C 80 % 1025,1 hPa 0,0 mm 8,5 km/h (2 Bft) NW 315 -4,1 C 6,5 km/h (2 Bft)
04.02.2016 08:05 -1,0 C -2,0 C 80 % 1025,3 hPa 0,0 mm 8,5 km/h (2 Bft) NW 315 -4,0 C 17,9 km/h (3 Bft)
04.02.2016 08:10 -1,0 C -1,9 C 80 % 1025,3 hPa 0,0 mm 7,8 km/h (2 Bft) NW 315 -4,0 C 14,2 km/h (3 Bft)
04.02.2016 08:15 -1,1 C -2,0 C 79 % 1025,3 hPa 0,0 mm 7,8 km/h (2 Bft) NW 315 -4,3 C 5,4 km/h (1 Bft)
04.02.2016 08:20 -1,0 C -1,8 C 78 % 1025,3 hPa 0,0 mm 8,0 km/h (2 Bft) NW 315 -4,3 C 7,5 km/h (2 Bft)
04.02.2016 08:25 -0,9 C -1,7 C 78 % 1025,1 hPa 0,0 mm 8,0 km/h (2 Bft) NW 315 -4,2 C 7,0 km/h (2 Bft)
04.02.2016 08:30 -0,7 C -1,5 C 78 % 1025,1 hPa 0,0 mm 8,8 km/h (2 Bft) NW 315 -4,0 C 7,3 km/h (2 Bft)
04.02.2016 08:35 -0,7 C -1,5 C 78 % 1025,1 hPa 0,0 mm 9,3 km/h (2 Bft) NW 315 -4,0 C 13,5 km/h (3 Bft)
04.02.2016 08:40 -0,7 C -1,5 C 78 % 1025,1 hPa 0,0 mm 9,6 km/h (2 Bft) NW 315 -4,0 C 15,3 km/h (3 Bft)
04.02.2016 08:45 -0,7 C -1,4 C 78 % 1025,1 hPa 0,0 mm 9,1 km/h (2 Bft) NW 315 -4,0 C 9,8 km/h (2 Bft)
04.02.2016 08:50 -0,7 C -1,5 C 78 % 1025,1 hPa 0,0 mm 9,1 km/h (2 Bft) NW 315 -4,0 C 6,5 km/h (2 Bft)
04.02.2016 08:55 -0,7 C -1,5 C 78 % 1025,1 hPa 0,0 mm 8,8 km/h (2 Bft) NW 315 -4,0 C 12,7 km/h (3 Bft)
04.02.2016 09:00 -0,9 C -1,5 C 78 % 1025,1 hPa 0,0 mm 9,6 km/h (2 Bft) NW 315 -4,2 C 22,0 km/h (4 Bft)
04.02.2016 09:05 -0,9 C -1,6 C 78 % 1025,2 hPa 0,0 mm 11,7 km/h (2 Bft) NW 315 -4,2 C 16,6 km/h (3 Bft)
04.02.2016 09:10 -0,7 C -1,1 C 78 % 1025,2 hPa 0,0 mm 13,2 km/h (3 Bft) NW 315 -4,0 C 19,4 km/h (3 Bft)
04.02.2016 09:15 -0,6 C -1,0 C 78 % 1025,2 hPa 0,0 mm 13,7 km/h (3 Bft) NW 315 -3,9 C 13,7 km/h (3 Bft)
04.02.2016 09:20 -0,5 C -0,8 C 78 % 1025,2 hPa 0,0 mm 14,2 km/h (3 Bft) NW 315 -3,9 C 17,6 km/h (3 Bft)
04.02.2016 09:25 -0,5 C -0,7 C 78 % 1025,6 hPa 0,0 mm 13,7 km/h (3 Bft) NW 315 -3,9 C 20,5 km/h (4 Bft)
04.02.2016 09:30 -0,4 C -0,8 C 78 % 1025,6 hPa 0,0 mm 11,7 km/h (2 Bft) NW 315 -3,8 C 10,4 km/h (2 Bft)
04.02.2016 09:35 -0,4 C -0,5 C 78 % 1025,6 hPa 0,0 mm 10,1 km/h (2 Bft) NW 315 -3,8 C 19,9 km/h (4 Bft)
04.02.2016 09:40 -0,2 C -0,3 C 78 % 1025,6 hPa 0,0 mm 10,1 km/h (2 Bft) NW 315 -3,6 C 14,5 km/h (3 Bft)
04.02.2016 09:45 -0,1 C -0,3 C 77 % 1025,5 hPa 0,0 mm 10,9 km/h (2 Bft) NW 315 -3,6 C 11,1 km/h (2 Bft)
04.02.2016 09:50 -0,2 C -0,5 C 77 % 1025,5 hPa 0,0 mm 10,6 km/h (2 Bft) NW 315 -3,7 C 15,8 km/h (3 Bft)
04.02.2016 09:55 -0,2 C -0,6 C 77 % 1025,5 hPa 0,0 mm 10,1 km/h (2 Bft) NW 315 -3,7 C 14,2 km/h (3 Bft)
04.02.2016 10:00 -0,2 C -0,8 C 77 % 1025,5 hPa 0,0 mm 11,4 km/h (2 Bft) NW 315 -3,7 C 18,6 km/h (3 Bft)
04.02.2016 10:05 -0,2 C -0,7 C 77 % 1025,9 hPa 0,0 mm 11,1 km/h (2 Bft) NW 315 -3,7 C 15,8 km/h (3 Bft)
04.02.2016 10:10 -0,2 C -0,7 C 77 % 1025,9 hPa 0,0 mm 10,4 km/h (2 Bft) NW 315 -3,7 C 18,6 km/h (3 Bft)
04.02.2016 10:15 -0,2 C -0,7 C 77 % 1025,9 hPa 0,0 mm 10,6 km/h (2 Bft) NW 315 -3,7 C 8,5 km/h (2 Bft)
04.02.2016 10:20 -0,2 C -0,6 C 77 % 1025,9 hPa 0,0 mm 10,6 km/h (2 Bft) NW 315 -3,7 C 13,7 km/h (3 Bft)
04.02.2016 10:25 -0,1 C -0,6 C 76 % 1025,6 hPa 0,0 mm 10,4 km/h (2 Bft) NW 315 -3,8 C 14,8 km/h (3 Bft)
04.02.2016 10:30 -0,1 C -0,5 C 76 % 1025,6 hPa 0,0 mm 10,9 km/h (2 Bft) NW 315 -3,8 C 15,3 km/h (3 Bft)
04.02.2016 10:35 0,0 C -0,1 C 76 % 1025,6 hPa 0,0 mm 9,3 km/h (2 Bft) NW 315 -3,7 C 7,3 km/h (2 Bft)
04.02.2016 10:40 0,0 C -0,2 C 76 % 1025,6 hPa 0,0 mm 10,4 km/h (2 Bft) NW 315 -3,7 C 11,9 km/h (2 Bft)
04.02.2016 10:44 0,1 C -0,4 C 76 % 1025,4 hPa 0,0 mm 12,2 km/h (2 Bft) NW 315 -3,6 C 10,9 km/h (2 Bft)
04.02.2016 10:45 0,1 C -0,4 C 76 % 1025,4 hPa 0,0 mm 12,2 km/h (2 Bft) NW 315 -3,6 C 10,9 km/h (2 Bft)
04.02.2016 10:50 0,1 C -0,1 C 75 % 1025,4 hPa 0,0 mm 11,9 km/h (2 Bft) NW 315 -3,8 C 28,0 km/h (4 Bft)
04.02.2016 10:55 0,2 C 0,3 C 75 % 1025,4 hPa 0,0 mm 12,4 km/h (3 Bft) NW 315 -3,7 C 17,3 km/h (3 Bft)
04.02.2016 11:00 0,4 C 0,7 C 75 % 1025,4 hPa 0,0 mm 12,4 km/h (3 Bft) NW 315 -3,5 C 14,8 km/h (3 Bft)
04.02.2016 11:05 0,5 C 1,0 C 75 % 1025,5 hPa 0,0 mm 10,9 km/h (2 Bft) NW 315 -3,4 C 15,8 km/h (3 Bft)
04.02.2016 11:10 0,6 C 1,2 C 75 % 1025,5 hPa 0,0 mm 10,1 km/h (2 Bft) NW 315 -3,3 C 10,1 km/h (2 Bft)
04.02.2016 11:15 0,7 C 1,5 C 74 % 1025,5 hPa 0,0 mm 9,6 km/h (2 Bft) NW 315 -3,4 C 7,3 km/h (2 Bft)
04.02.2016 11:20 0,7 C 1,3 C 74 % 1025,5 hPa 0,0 mm 10,1 km/h (2 Bft) NW 315 -3,4 C 9,1 km/h (2 Bft)
04.02.2016 11:25 0,6 C 0,7 C 74 % 1025,6 hPa 0,0 mm 11,1 km/h (2 Bft) NW 315 -3,5 C 14,0 km/h (3 Bft)
04.02.2016 11:30 0,4 C 0,5 C 74 % 1025,6 hPa 0,0 mm 10,6 km/h (2 Bft) NW 315 -3,7 C 11,7 km/h (2 Bft)
04.02.2016 11:35 0,5 C 0,9 C 74 % 1025,6 hPa 0,0 mm 10,4 km/h (2 Bft) NW 315 -3,6 C 17,3 km/h (3 Bft)
04.02.2016 11:40 0,5 C 0,8 C 74 % 1025,6 hPa 0,0 mm 10,1 km/h (2 Bft) NW 315 -3,6 C 11,7 km/h (2 Bft)
04.02.2016 11:45 0,4 C 0,5 C 74 % 1025,7 hPa 0,0 mm 11,4 km/h (2 Bft) NW 315 -3,7 C 13,5 km/h (3 Bft)
04.02.2016 11:50 0,2 C 0,2 C 75 % 1025,7 hPa 0,0 mm 13,7 km/h (3 Bft) NW 315 -3,7 C 17,1 km/h (3 Bft)
04.02.2016 11:55 0,1 C -0,3 C 75 % 1025,7 hPa 0,0 mm 11,9 km/h (2 Bft) NW 315 -3,8 C 9,3 km/h (2 Bft)
04.02.2016 12:00 0,1 C -0,3 C 75 % 1025,7 hPa 0,0 mm 10,1 km/h (2 Bft) NW 315 -3,8 C 10,1 km/h (2 Bft)
04.02.2016 12:05 0,1 C -0,2 C 75 % 1025,6 hPa 0,0 mm 9,1 km/h (2 Bft) NW 315 -3,8 C 16,8 km/h (3 Bft)
04.02.2016 12:10 0,1 C -0,3 C 75 % 1025,6 hPa 0,0 mm 9,3 km/h (2 Bft) NW 315 -3,8 C 7,5 km/h (2 Bft)
04.02.2016 12:15 0,2 C -0,5 C 75 % 1025,6 hPa 0,0 mm 11,9 km/h (2 Bft) NW 315 -3,7 C 22,3 km/h (4 Bft)
04.02.2016 12:20 0,4 C -0,1 C 75 % 1025,6 hPa 0,0 mm 14,5 km/h (3 Bft) NW 315 -3,5 C 15,8 km/h (3 Bft)
04.02.2016 12:25 0,4 C -0,3 C 74 % 1025,2 hPa 0,0 mm 16,3 km/h (3 Bft) NW 315 -3,7 C 41,9 km/h (6 Bft)
04.02.2016 12:30 0,4 C -0,1 C 74 % 1025,2 hPa 0,0 mm 14,8 km/h (3 Bft) NW 315 -3,7 C 17,9 km/h (3 Bft)
04.02.2016 12:35 0,4 C -0,1 C 74 % 1025,2 hPa 0,0 mm 15,5 km/h (3 Bft) NW 315 -3,7 C 28,2 km/h (4 Bft)
04.02.2016 12:40 0,5 C 0,1 C 73 % 1025,2 hPa 0,0 mm 18,1 km/h (3 Bft) NW 315 -3,8 C 19,2 km/h (3 Bft)
04.02.2016 12:45 0,6 C 0,1 C 73 % 1024,8 hPa 0,0 mm 18,4 km/h (3 Bft) NW 315 -3,7 C 38,8 km/h (5 Bft)
04.02.2016 12:50 0,7 C 0,6 C 73 % 1024,8 hPa 0,0 mm 17,6 km/h (3 Bft) NW 315 -3,6 C 31,6 km/h (5 Bft)
04.02.2016 12:55 0,9 C 1,3 C 73 % 1024,8 hPa 0,0 mm 15,3 km/h (3 Bft) NW 315 -3,4 C 12,7 km/h (3 Bft)
04.02.2016 13:00 1,0 C 1,7 C 72 % 1024,8 hPa 0,0 mm 12,9 km/h (3 Bft) NW 315 -3,5 C 15,5 km/h (3 Bft)
04.02.2016 13:05 1,1 C 1,6 C 72 % 1024,6 hPa 0,0 mm 11,7 km/h (2 Bft) NW 315 -3,4 C 14,2 km/h (3 Bft)
04.02.2016 13:10 1,1 C 1,8 C 72 % 1024,6 hPa 0,0 mm 11,7 km/h (2 Bft) NW 315 -3,4 C 15,0 km/h (3 Bft)
04.02.2016 13:15 1,2 C 2,2 C 72 % 1024,6 hPa 0,0 mm 10,4 km/h (2 Bft) W-SW 247 -3,3 C 8,5 km/h (2 Bft)
04.02.2016 13:20 1,2 C 2,2 C 71 % 1024,6 hPa 0,0 mm 9,8 km/h (2 Bft) SW 225 -3,5 C 9,1 km/h (2 Bft)
04.02.2016 13:25 1,4 C 2,1 C 71 % 1024,1 hPa 0,0 mm 10,9 km/h (2 Bft) W-SW 247 -3,3 C 13,5 km/h (3 Bft)
04.02.2016 13:30 1,4 C 2,2 C 71 % 1024,1 hPa 0,0 mm 10,4 km/h (2 Bft) SW 225 -3,3 C 8,0 km/h (2 Bft)
04.02.2016 13:35 1,4 C 2,4 C 71 % 1024,1 hPa 0,0 mm 9,6 km/h (2 Bft) W 270 -3,3 C 20,7 km/h (4 Bft)
04.02.2016 13:40 1,4 C 2,3 C 70 % 1024,1 hPa 0,0 mm 10,1 km/h (2 Bft) W-SW 247 -3,5 C 16,6 km/h (3 Bft)
04.02.2016 13:45 1,4 C 2,3 C 69 % 1023,7 hPa 0,0 mm 12,4 km/h (3 Bft) N-NO 22 -3,7 C 22,5 km/h (4 Bft)
04.02.2016 13:50 1,4 C 2,3 C 69 % 1023,7 hPa 0,0 mm 12,4 km/h (3 Bft) W-SW 247 -3,7 C 12,4 km/h (3 Bft)
04.02.2016 13:55 1,4 C 2,1 C 69 % 1023,7 hPa 0,0 mm 11,4 km/h (2 Bft) W 270 -3,7 C 14,8 km/h (3 Bft)
04.02.2016 14:00 1,2 C 1,6 C 68 % 1023,7 hPa 0,0 mm 12,2 km/h (2 Bft) W-SW 247 -4,0 C 15,5 km/h (3 Bft)
04.02.2016 14:05 1,2 C 1,6 C 68 % 1023,2 hPa 0,0 mm 11,7 km/h (2 Bft) W-SW 247 -4,0 C 15,3 km/h (3 Bft)
04.02.2016 14:10 1,2 C 1,4 C 68 % 1023,2 hPa 0,0 mm 11,7 km/h (2 Bft) W-SW 247 -4,0 C 18,9 km/h (3 Bft)
04.02.2016 14:15 1,2 C 1,4 C 68 % 1023,2 hPa 0,0 mm 10,9 km/h (2 Bft) W 270 -4,0 C 12,4 km/h (3 Bft)
04.02.2016 14:20 1,2 C 1,2 C 67 % 1023,2 hPa 0,0 mm 11,4 km/h (2 Bft) W 270 -4,2 C 9,8 km/h (2 Bft)
04.02.2016 14:25 1,1 C 1,4 C 67 % 1022,5 hPa 0,0 mm 10,6 km/h (2 Bft) W-NW 292 -4,3 C 7,8 km/h (2 Bft)
04.02.2016 14:30 1,1 C 1,1 C 67 % 1022,5 hPa 0,0 mm 10,6 km/h (2 Bft) SW 225 -4,3 C 16,3 km/h (3 Bft)
04.02.2016 14:35 1,1 C 1,0 C 67 % 1022,5 hPa 0,0 mm 11,9 km/h (2 Bft) W 270 -4,3 C 26,2 km/h (4 Bft)
04.02.2016 14:40 1,1 C 1,2 C 66 % 1022,5 hPa 0,0 mm 11,1 km/h (2 Bft) SW 225 -4,5 C 11,4 km/h (2 Bft)
04.02.2016 14:45 1,1 C 1,4 C 66 % 1022,3 hPa 0,0 mm 10,4 km/h (2 Bft) W 270 -4,5 C 15,5 km/h (3 Bft)
04.02.2016 14:50 1,2 C 1,6 C 66 % 1022,3 hPa 0,0 mm 9,1 km/h (2 Bft) W-SW 247 -4,4 C 11,1 km/h (2 Bft)
04.02.2016 14:55 1,2 C 1,6 C 66 % 1022,3 hPa 0,0 mm 9,6 km/h (2 Bft) S 180 -4,4 C 15,8 km/h (3 Bft)
04.02.2016 15:00 1,4 C 1,8 C 66 % 1022,3 hPa 0,0 mm 8,8 km/h (2 Bft) W-SW 247 -4,2 C 12,4 km/h (3 Bft)
04.02.2016 15:05 1,2 C 1,6 C 65 % 1021,9 hPa 0,0 mm 8,3 km/h (2 Bft) W 270 -4,6 C 7,5 km/h (2 Bft)
04.02.2016 15:10 1,2 C 1,3 C 66 % 1021,9 hPa 0,0 mm 8,3 km/h (2 Bft) W-SW 247 -4,4 C 14,8 km/h (3 Bft)
04.02.2016 15:15 1,1 C 1,2 C 66 % 1021,9 hPa 0,0 mm 7,3 km/h (2 Bft) W-NW 292 -4,5 C 10,9 km/h (2 Bft)
04.02.2016 15:20 1,1 C 1,0 C 66 % 1021,9 hPa 0,0 mm 8,0 km/h (2 Bft) W-NW 292 -4,5 C 16,3 km/h (3 Bft)
04.02.2016 15:25 1,1 C 0,9 C 66 % 1022,1 hPa 0,0 mm 9,3 km/h (2 Bft) W 270 -4,5 C 9,8 km/h (2 Bft)
04.02.2016 15:30 1,0 C 0,9 C 66 % 1022,1 hPa 0,0 mm 9,6 km/h (2 Bft) NW 315 -4,6 C 15,0 km/h (3 Bft)
04.02.2016 15:35 1,0 C 0,9 C 66 % 1022,1 hPa 0,0 mm 9,8 km/h (2 Bft) W 270 -4,6 C 9,8 km/h (2 Bft)
04.02.2016 15:40 1,0 C 0,7 C 66 % 1022,1 hPa 0,0 mm 10,1 km/h (2 Bft) W 270 -4,6 C 10,4 km/h (2 Bft)
04.02.2016 15:45 0,9 C 0,5 C 67 % 1021,7 hPa 0,0 mm 10,6 km/h (2 Bft) W 270 -4,5 C 18,9 km/h (3 Bft)
04.02.2016 15:50 0,8 C 0,3 C 67 % 1021,7 hPa 0,0 mm 11,4 km/h (2 Bft) NW 315 -4,6 C 8,5 km/h (2 Bft)
04.02.2016 15:55 0,7 C 0,3 C 68 % 1021,7 hPa 0,0 mm 10,9 km/h (2 Bft) W-SW 247 -4,5 C 16,3 km/h (3 Bft)
04.02.2016 16:00 0,5 C 0,0 C 69 % 1021,7 hPa 0,0 mm 10,1 km/h (2 Bft) W-SW 247 -4,5 C 10,4 km/h (2 Bft)
04.02.2016 16:05 0,4 C 0,0 C 69 % 1021,6 hPa 0,0 mm 10,1 km/h (2 Bft) S 180 -4,6 C 9,8 km/h (2 Bft)
04.02.2016 16:10 0,2 C 0,0 C 70 % 1021,6 hPa 0,0 mm 7,8 km/h (2 Bft) W-SW 247 -4,6 C 12,2 km/h (2 Bft)
04.02.2016 16:15 0,2 C -0,2 C 71 % 1021,6 hPa 0,0 mm 7,8 km/h (2 Bft) SW 225 -4,4 C 17,3 km/h (3 Bft)
04.02.2016 16:20 0,1 C -0,2 C 72 % 1021,6 hPa 0,0 mm 7,5 km/h (2 Bft) W-SW 247 -4,3 C 7,3 km/h (2 Bft)
04.02.2016 16:25 0,1 C 0,0 C 72 % 1021,1 hPa 0,0 mm 6,0 km/h (2 Bft) W-SW 247 -4,3 C 7,3 km/h (2 Bft)
04.02.2016 16:30 0,2 C 0,0 C 72 % 1021,1 hPa 0,0 mm 5,4 km/h (1 Bft) SW 225 -4,2 C 13,5 km/h (3 Bft)
04.02.2016 16:35 0,4 C -0,1 C 73 % 1021,1 hPa 0,0 mm 8,3 km/h (2 Bft) W-SW 247 -3,9 C 9,6 km/h (2 Bft)
04.02.2016 16:40 0,5 C 0,0 C 72 % 1021,1 hPa 0,0 mm 8,0 km/h (2 Bft) W-SW 247 -3,9 C 0,0 km/h (0 Bft)
04.02.2016 16:44 0,4 C 0,2 C 72 % 1020,7 hPa 0,0 mm 4,9 km/h (1 Bft) S-SW 202 -4,0 C 9,1 km/h (2 Bft)
04.02.2016 16:46 0,4 C 0,2 C 72 % 1020,7 hPa 0,0 mm 4,9 km/h (1 Bft) S-SW 202 -4,0 C 9,1 km/h (2 Bft)
04.02.2016 16:50 0,5 C 0,1 C 72 % 1020,7 hPa 0,0 mm 6,0 km/h (2 Bft) W-SW 247 -3,9 C 9,1 km/h (2 Bft)
04.02.2016 16:55 0,4 C -0,1 C 72 % 1020,7 hPa 0,0 mm 7,3 km/h (2 Bft) W-NW 292 -4,0 C 5,7 km/h (1 Bft)
04.02.2016 17:00 0,4 C -0,2 C 72 % 1020,7 hPa 0,0 mm 7,5 km/h (2 Bft) W-SW 247 -4,0 C 7,5 km/h (2 Bft)
04.02.2016 17:05 0,3 C -0,2 C 72 % 1020,5 hPa 0,0 mm 7,0 km/h (2 Bft) SW 225 -4,1 C 8,8 km/h (2 Bft)
04.02.2016 17:10 0,3 C -0,4 C 73 % 1020,5 hPa 0,0 mm 8,0 km/h (2 Bft) W-SW 247 -4,0 C 9,6 km/h (2 Bft)
04.02.2016 17:15 0,2 C -0,6 C 73 % 1020,5 hPa 0,0 mm 9,3 km/h (2 Bft) W 270 -4,1 C 17,3 km/h (3 Bft)
04.02.2016 17:20 0,2 C -0,6 C 74 % 1020,5 hPa 0,0 mm 9,6 km/h (2 Bft) W-SW 247 -3,9 C 9,3 km/h (2 Bft)
04.02.2016 17:25 0,1 C -0,8 C 75 % 1020,0 hPa 0,0 mm 10,1 km/h (2 Bft) O-NO 67 -3,8 C 8,5 km/h (2 Bft)
04.02.2016 17:30 0,0 C -0,8 C 75 % 1020,0 hPa 0,0 mm 9,3 km/h (2 Bft) SW 225 -3,9 C 7,0 km/h (2 Bft)
04.02.2016 17:35 0,0 C -0,9 C 76 % 1020,0 hPa 0,0 mm 9,8 km/h (2 Bft) W-SW 247 -3,7 C 28,0 km/h (4 Bft)
04.02.2016 17:40 0,1 C -0,9 C 77 % 1020,0 hPa 0,0 mm 11,7 km/h (2 Bft) W-SW 247 -3,4 C 12,2 km/h (2 Bft)
04.02.2016 17:45 0,1 C -0,6 C 74 % 1019,7 hPa 0,0 mm 14,2 km/h (3 Bft) W-NW 292 -4,0 C 21,8 km/h (4 Bft)
04.02.2016 17:50 0,1 C -0,7 C 75 % 1019,7 hPa 0,0 mm 13,2 km/h (3 Bft) W-NW 292 -3,8 C 18,4 km/h (3 Bft)
04.02.2016 17:55 0,2 C -0,9 C 75 % 1019,7 hPa 0,0 mm 14,2 km/h (3 Bft) W-NW 292 -3,7 C 21,2 km/h (4 Bft)
04.02.2016 18:00 0,4 C -0,8 C 78 % 1019,7 hPa 0,0 mm 14,5 km/h (3 Bft) W-SW 247 -3,0 C 10,4 km/h (2 Bft)
04.02.2016 18:05 0,6 C -0,3 C 76 % 1019,4 hPa 0,0 mm 17,1 km/h (3 Bft) W 270 -3,1 C 20,7 km/h (4 Bft)
04.02.2016 18:10 0,8 C -0,2 C 75 % 1019,4 hPa 0,0 mm 20,7 km/h (4 Bft) W 270 -3,1 C 27,2 km/h (4 Bft)
04.02.2016 18:15 0,9 C 0,0 C 75 % 1019,4 hPa 0,0 mm 19,9 km/h (4 Bft) W-NW 292 -3,0 C 22,3 km/h (4 Bft)
04.02.2016 18:20 1,0 C 0,1 C 75 % 1019,4 hPa 0,0 mm 17,6 km/h (3 Bft) W-SW 247 -2,9 C 28,7 km/h (4 Bft)
04.02.2016 18:25 1,2 C 0,3 C 74 % 1019,7 hPa 0,0 mm 18,9 km/h (3 Bft) W 270 -2,9 C 20,7 km/h (4 Bft)
04.02.2016 18:30 1,4 C 0,0 C 74 % 1019,7 hPa 0,0 mm 20,5 km/h (4 Bft) W-SW 247 -2,7 C 23,8 km/h (4 Bft)
04.02.2016 18:35 1,4 C 0,5 C 74 % 1019,7 hPa 0,0 mm 19,7 km/h (3 Bft) NW 315 -2,7 C 42,2 km/h (6 Bft)
04.02.2016 18:40 1,4 C 0,6 C 73 % 1019,7 hPa 0,0 mm 17,6 km/h (3 Bft) NW 315 -2,9 C 17,6 km/h (3 Bft)
04.02.2016 18:45 1,5 C 0,7 C 73 % 1020,0 hPa 0,0 mm 15,8 km/h (3 Bft) W-SW 247 -2,8 C 25,4 km/h (4 Bft)
04.02.2016 18:50 1,5 C 0,7 C 74 % 1020,0 hPa 0,0 mm 16,8 km/h (3 Bft) NW 315 -2,6 C 23,3 km/h (4 Bft)
04.02.2016 18:55 1,5 C 0,7 C 74 % 1020,0 hPa 0,7 mm 18,6 km/h (3 Bft) NW 315 -2,6 C 46,1 km/h (6 Bft)
04.02.2016 19:00 1,6 C 0,7 C 75 % 1020,0 hPa 0,0 mm 22,0 km/h (4 Bft) W-NW 292 -2,3 C 41,2 km/h (6 Bft)
04.02.2016 19:05 1,5 C 0,2 C 76 % 1020,7 hPa 0,0 mm 22,0 km/h (4 Bft) W-SW 247 -2,3 C 17,3 km/h (3 Bft)
04.02.2016 19:10 1,5 C 0,2 C 77 % 1020,7 hPa 0,0 mm 21,0 km/h (4 Bft) W-SW 247 -2,1 C 19,4 km/h (3 Bft)
04.02.2016 19:15 1,4 C 0,1 C 77 % 1020,7 hPa 0,0 mm 20,5 km/h (4 Bft) SO 135 -2,2 C 39,6 km/h (6 Bft)
04.02.2016 19:20 1,3 C 0,4 C 78 % 1020,7 hPa 0,0 mm 21,8 km/h (4 Bft) W-SW 247 -2,1 C 30,6 km/h (5 Bft)
04.02.2016 19:25 1,3 C 0,3 C 79 % 1020,7 hPa 0,0 mm 23,3 km/h (4 Bft) W 270 -1,9 C 50,0 km/h (6 Bft)
04.02.2016 19:30 1,2 C 0,2 C 80 % 1020,7 hPa 0,0 mm 21,5 km/h (4 Bft) W-SW 247 -1,9 C 20,2 km/h (4 Bft)
04.02.2016 19:35 1,1 C 0,1 C 81 % 1020,7 hPa 0,0 mm 19,2 km/h (3 Bft) W-SW 247 -1,8 C 32,4 km/h (5 Bft)
04.02.2016 19:40 1,1 C 0,2 C 81 % 1020,7 hPa 0,0 mm 16,8 km/h (3 Bft) W-SW 247 -1,8 C 23,8 km/h (4 Bft)
04.02.2016 19:45 1,1 C 0,3 C 77 % 1020,7 hPa 0,0 mm 19,7 km/h (3 Bft) SW 225 -2,5 C 41,9 km/h (6 Bft)
04.02.2016 19:50 1,1 C 0,2 C 78 % 1020,7 hPa 0,0 mm 20,7 km/h (4 Bft) W-NW 292 -2,3 C 42,7 km/h (6 Bft)
04.02.2016 19:55 1,1 C 0,1 C 82 % 1020,7 hPa 0,0 mm 18,6 km/h (3 Bft) W-SW 247 -1,6 C 16,1 km/h (3 Bft)
04.02.2016 20:00 1,1 C 0,0 C 83 % 1020,7 hPa 0,0 mm 19,2 km/h (3 Bft) NW 315 -1,5 C 23,6 km/h (4 Bft)
04.02.2016 20:05 0,9 C -0,1 C 84 % 1020,9 hPa 0,0 mm 18,9 km/h (3 Bft) W-NW 292 -1,5 C 57,5 km/h (7 Bft)
04.02.2016 20:10 1,0 C -0,5 C 85 % 1020,9 hPa 0,0 mm 19,2 km/h (3 Bft) W 270 -1,2 C 21,2 km/h (4 Bft)
04.02.2016 20:15 1,0 C -0,1 C 86 % 1020,9 hPa 0,0 mm 20,5 km/h (4 Bft) W 270 -1,1 C 18,1 km/h (3 Bft)
04.02.2016 20:20 0,9 C -0,3 C 87 % 1020,9 hPa 0,0 mm 21,5 km/h (4 Bft) SW 225 -1,0 C 27,7 km/h (4 Bft)
04.02.2016 20:25 1,0 C -0,2 C 87 % 1021,1 hPa 0,0 mm 20,2 km/h (4 Bft) O-NO 67 -0,9 C 27,7 km/h (4 Bft)
04.02.2016 20:30 1,0 C -0,1 C 87 % 1021,1 hPa 0,0 mm 17,1 km/h (3 Bft) W 270 -0,9 C 19,2 km/h (3 Bft)
04.02.2016 20:35 1,1 C 0,0 C 87 % 1021,1 hPa 0,0 mm 16,3 km/h (3 Bft) W-NW 292 -0,8 C 20,2 km/h (4 Bft)
04.02.2016 20:40 1,1 C 0,1 C 87 % 1021,1 hPa 0,0 mm 15,8 km/h (3 Bft) W-SW 247 -0,8 C 16,8 km/h (3 Bft)
04.02.2016 20:45 1,1 C 0,1 C 87 % 1021,5 hPa 0,0 mm 14,5 km/h (3 Bft) W 270 -0,8 C 17,3 km/h (3 Bft)
04.02.2016 20:50 1,2 C 0,2 C 87 % 1021,5 hPa 0,0 mm 14,8 km/h (3 Bft) W 270 -0,7 C 20,2 km/h (4 Bft)
04.02.2016 20:55 1,3 C 0,3 C 86 % 1021,5 hPa 0,0 mm 16,1 km/h (3 Bft) W 270 -0,8 C 39,1 km/h (6 Bft)
04.02.2016 21:00 1,3 C 0,3 C 86 % 1021,5 hPa 0,0 mm 16,3 km/h (3 Bft) W 270 -0,8 C 23,0 km/h (4 Bft)
04.02.2016 21:05 1,2 C 0,3 C 86 % 1021,5 hPa 0,0 mm 14,0 km/h (3 Bft) W 270 -0,9 C 11,1 km/h (2 Bft)
04.02.2016 21:10 1,1 C 0,2 C 86 % 1021,5 hPa 0,0 mm 15,0 km/h (3 Bft) W-NW 292 -1,0 C 22,3 km/h (4 Bft)
04.02.2016 21:15 1,1 C 0,1 C 87 % 1021,5 hPa 0,0 mm 15,5 km/h (3 Bft) W 270 -0,8 C 25,1 km/h (4 Bft)
04.02.2016 21:20 1,1 C 0,1 C 87 % 1021,5 hPa 0,0 mm 16,1 km/h (3 Bft) N-NW 337 -0,8 C 13,2 km/h (3 Bft)
04.02.2016 21:25 1,1 C 0,1 C 87 % 1021,7 hPa 0,0 mm 17,1 km/h (3 Bft) W-SW 247 -0,8 C 12,4 km/h (3 Bft)
04.02.2016 21:30 1,1 C 0,1 C 88 % 1021,7 hPa 0,0 mm 14,2 km/h (3 Bft) W 270 -0,7 C 11,4 km/h (2 Bft)
04.02.2016 21:35 1,1 C 0,2 C 88 % 1021,7 hPa 0,0 mm 13,2 km/h (3 Bft) NW 315 -0,7 C 14,5 km/h (3 Bft)
04.02.2016 21:40 1,1 C 0,2 C 88 % 1021,7 hPa 0,0 mm 12,4 km/h (3 Bft) W-SW 247 -0,7 C 21,8 km/h (4 Bft)
04.02.2016 21:45 1,1 C 0,2 C 88 % 1021,7 hPa 0,0 mm 13,5 km/h (3 Bft) W 270 -0,7 C 16,6 km/h (3 Bft)
04.02.2016 21:50 1,1 C 0,2 C 89 % 1021,7 hPa 0,0 mm 13,7 km/h (3 Bft) W-SW 247 -0,5 C 14,5 km/h (3 Bft)
04.02.2016 21:55 1,1 C 0,2 C 89 % 1021,7 hPa 0,0 mm 13,5 km/h (3 Bft) SW 225 -0,5 C 21,2 km/h (4 Bft)
04.02.2016 22:00 1,2 C 0,3 C 89 % 1021,7 hPa 0,0 mm 14,2 km/h (3 Bft) W-NW 292 -0,4 C 21,8 km/h (4 Bft)
04.02.2016 22:05 1,2 C 0,2 C 89 % 1021,6 hPa 0,7 mm 15,3 km/h (3 Bft) N 360 -0,4 C 16,1 km/h (3 Bft)
04.02.2016 22:10 1,4 C 0,3 C 89 % 1021,6 hPa 0,0 mm 17,9 km/h (3 Bft) W-NW 292 -0,2 C 29,0 km/h (5 Bft)
04.02.2016 22:15 1,4 C 0,3 C 88 % 1021,6 hPa 0,0 mm 18,4 km/h (3 Bft) NW 315 -0,4 C 27,7 km/h (4 Bft)
04.02.2016 22:20 1,5 C 0,4 C 88 % 1021,6 hPa 0,0 mm 18,6 km/h (3 Bft) W-SW 247 -0,3 C 16,1 km/h (3 Bft)
04.02.2016 22:25 1,4 C 0,4 C 88 % 1022,0 hPa 0,0 mm 17,1 km/h (3 Bft) W-NW 292 -0,4 C 15,0 km/h (3 Bft)
04.02.2016 22:30 1,5 C 0,5 C 87 % 1022,0 hPa 0,0 mm 16,1 km/h (3 Bft) W 270 -0,4 C 23,3 km/h (4 Bft)
04.02.2016 22:35 1,5 C 0,1 C 87 % 1022,0 hPa 0,0 mm 16,3 km/h (3 Bft) W-SW 247 -0,4 C 24,6 km/h (4 Bft)
04.02.2016 22:40 1,6 C 0,6 C 87 % 1022,0 hPa 0,0 mm 17,9 km/h (3 Bft) W-SW 247 -0,3 C 26,4 km/h (4 Bft)
04.02.2016 22:45 1,5 C 0,5 C 87 % 1022,3 hPa 0,0 mm 17,1 km/h (3 Bft) W 270 -0,4 C 12,4 km/h (3 Bft)
04.02.2016 22:47 1,5 C 0,1 C 87 % 1022,3 hPa 0,0 mm 17,1 km/h (3 Bft) W 270 -0,4 C 12,4 km/h (3 Bft)
04.02.2016 22:50 1,6 C 0,6 C 86 % 1022,3 hPa 0,0 mm 16,3 km/h (3 Bft) W 270 -0,5 C 24,9 km/h (4 Bft)
04.02.2016 22:55 1,5 C 0,6 C 86 % 1022,3 hPa 0,0 mm 14,5 km/h (3 Bft) SW 225 -0,6 C 16,3 km/h (3 Bft)
04.02.2016 23:00 1,5 C 0,6 C 86 % 1022,3 hPa 0,0 mm 14,0 km/h (3 Bft) NW 315 -0,6 C 32,6 km/h (5 Bft)
04.02.2016 23:05 1,7 C 0,7 C 86 % 1022,3 hPa 0,0 mm 16,3 km/h (3 Bft) W 270 -0,4 C 29,0 km/h (5 Bft)
04.02.2016 23:10 1,5 C 0,5 C 86 % 1022,3 hPa 0,0 mm 17,9 km/h (3 Bft) N 360 -0,6 C 31,3 km/h (5 Bft)
04.02.2016 23:15 1,4 C 0,4 C 87 % 1022,3 hPa 0,7 mm 16,1 km/h (3 Bft) W 270 -0,5 C 20,5 km/h (4 Bft)
04.02.2016 23:20 1,4 C 0,4 C 87 % 1022,3 hPa 0,0 mm 15,0 km/h (3 Bft) W-SW 247 -0,5 C 25,6 km/h (4 Bft)
04.02.2016 23:25 1,3 C 0,4 C 87 % 1022,3 hPa 0,0 mm 14,8 km/h (3 Bft) W-NW 292 -0,6 C 18,6 km/h (3 Bft)
04.02.2016 23:30 1,3 C 0,4 C 88 % 1022,3 hPa 0,0 mm 16,8 km/h (3 Bft) W 270 -0,5 C 19,2 km/h (3 Bft)
04.02.2016 23:35 1,3 C -0,1 C 88 % 1022,3 hPa 0,0 mm 16,6 km/h (3 Bft) W-NW 292 -0,5 C 29,3 km/h (5 Bft)
04.02.2016 23:40 1,2 C 0,2 C 88 % 1022,3 hPa 0,0 mm 15,5 km/h (3 Bft) W 270 -0,6 C 12,4 km/h (3 Bft)
04.02.2016 23:45 1,2 C 0,2 C 89 % 1022,7 hPa 0,0 mm 15,8 km/h (3 Bft) W 270 -0,4 C 18,9 km/h (3 Bft)
04.02.2016 23:50 1,3 C 0,3 C 89 % 1022,7 hPa 0,0 mm 16,1 km/h (3 Bft) SW 225 -0,3 C 22,8 km/h (4 Bft)
04.02.2016 23:55 1,3 C 0,0 C 89 % 1022,7 hPa 0,0 mm 16,1 km/h (3 Bft) W 270 -0,3 C 14,0 km/h (3 Bft)
_ Min-Zeit 01:50 04:25 15:05 18:20 - 01:15 - - 00:45 16:40
Minimum _ -2,0 C -2,7 C 65 % 1019,4 hPa - 3,4 km/h (1 Bft) - - -5,0 C 0,0 km/h (0 Bft)
_ Max-Zeit 23:05 13:35 23:55 10:20 23:15 19:25 - - 22:10 20:05
Maximum _ 1,7 C 2,4 C 89 % 1025,9 hPa 0,7 mm 23,3 km/h
W (4 Bft)
- - -0,2 C 57,5 km/h
W-NW (7 Bft)
Durchschnitt _ -0,1 C -0,6 C 79 % 1023,3 hPa #2,1 mm 11,2 km/h (2 Bft) NW - -3,3 C 15,1 km/h (3 Bft)